Weather History for Phoenix, AZ

Change the Weather History Date:

Saturday, August 24, 2013

  Actual Average Record
Temperature  
Mean Temperature 91 °F 93 °F  
Max Temperature 101 °F 104 °F 115 °F (1985)
Min Temperature 81 °F 82 °F 61 °F (1965)
Degree Days  
Heating Degree Days 0 0  
Month to date heating degree days 0 0  
Since 1 June heating degree days 0 0  
Since 1 July heating degree days 0 0  
Cooling Degree Days 26 28  
Month to date cooling degree days 748 690  
Year to date cooling degree days 3707 3274  
Since 1 June cooling degree days 2609 2388  
Growing Degree Days 40 (Base 50)    
Moisture  
Dew Point 61 °F    
Average Humidity 43    
Maximum Humidity 58    
Minimum Humidity 27    
Precipitation  
Precipitation T in 0.04 in 1.16 in (1952)
Month to date precipitation 0.01 0.80  
Year to date precipitation 4.39 5.08  
Snow  
Snow 0.00 in - - ()
Month to date snowfall 0.0  
Year to date snowfall 0.0  
Since 1 July snowfall 0.0  
Snow Depth 0.00 in    
Sea Level Pressure  
Sea Level Pressure 29.80 in    
Wind  
Wind Speed 9 mph (West)    
Max Wind Speed 21 mph    
Max Gust Speed 26 mph    
Visibility 10 miles    
Events Rain , Thunderstorm    
T = Trace of Precipitation, MM = Missing Value Source: NWS Daily Summary

Daily Weather History Graph

Daily Weather History Graph

Search for Another Location

Airport:

Trip Planner

Search our weather history database for the weather conditions in past years. The results will help you decide how hot, cold, wet, or windy it might be!

Date:

Astronomy

Aug. 24, 2013 Rise Set
Actual Time 5:56 AM MST 7:03 PM MST
Civil Twilight 5:31 AM MST 7:28 PM MST
Nautical Twilight 5:00 AM MST 7:59 PM MST
Astronomical Twilight 4:29 AM MST 8:30 PM MST
Moon 9:15 PM MST (8/24) 9:45 AM MST (8/24)
Length of Visible Light 13h 57m
Length of Day
13h 06m
Waning Gibbous, 83% of the Moon is Illuminated
Aug 24
Waning Gibbous
Aug 28
Last Quarter
Sep 5
New
Sep 12
First Quarter
Sep 19
Full

Hourly Weather History & Observations

Time (MST) Temp. Heat Index Dew Point Humidity Pressure Visibility Wind Dir Wind Speed Gust Speed Precip Events Conditions
12:51 AM 90.0 °F 89.1 °F 59.0 °F 35% 29.73 in 10.0 mi SSE 11.5 mph 21.9 mph N/A   Mostly Cloudy
1:51 AM 90.0 °F 89.1 °F 59.0 °F 35% 29.76 in 10.0 mi SSE 15.0 mph 20.7 mph N/A   Mostly Cloudy
2:51 AM 88.0 °F 87.6 °F 60.1 °F 39% 29.79 in 10.0 mi SW 5.8 mph - 0.00 in Rain Light Rain
3:37 AM 88.0 °F 87.6 °F 60.1 °F 39% 29.85 in 10.0 mi SE 12.7 mph - 0.00 in Thunderstorm Thunderstorm
3:51 AM 88.0 °F 87.1 °F 59.0 °F 37% 29.79 in 10.0 mi ESE 17.3 mph 20.7 mph 0.00 in Thunderstorm Thunderstorm
4:51 AM 87.1 °F 86.7 °F 60.1 °F 40% 29.79 in 10.0 mi SSE 8.1 mph - N/A Thunderstorm Thunderstorm
5:43 AM 84.0 °F 85.4 °F 64.0 °F 51% 29.87 in 10.0 mi SSE 3.5 mph - 0.00 in Rain Light Rain
5:51 AM 84.0 °F 84.9 °F 63.0 °F 49% 29.81 in 10.0 mi Calm Calm - 0.00 in Rain Light Rain
6:51 AM 86.0 °F 86.1 °F 61.0 °F 43% 29.82 in 10.0 mi SSE 5.8 mph - 0.00 in   Mostly Cloudy
7:51 AM 82.0 °F 84.5 °F 66.9 °F 60% 29.85 in 10.0 mi NW 12.7 mph - N/A   Mostly Cloudy
8:51 AM 82.9 °F 84.6 °F 64.9 °F 54% 29.87 in 10.0 mi NNW 13.8 mph - N/A   Mostly Cloudy
9:51 AM 87.1 °F 87.8 °F 63.0 °F 44% 29.87 in 10.0 mi NNW 11.5 mph - N/A   Mostly Cloudy
10:51 AM 90.0 °F 90.3 °F 62.1 °F 39% 29.86 in 10.0 mi WNW 8.1 mph - N/A   Mostly Cloudy
11:51 AM 90.0 °F 89.7 °F 60.1 °F 37% 29.85 in 10.0 mi WNW 3.5 mph - N/A   Mostly Cloudy
12:51 PM 95.0 °F 94.4 °F 59.0 °F 30% 29.82 in 10.0 mi North 8.1 mph - N/A   Scattered Clouds
1:51 PM 97.0 °F 95.7 °F 57.0 °F 26% 29.78 in 10.0 mi NNE 6.9 mph - N/A   Scattered Clouds
2:51 PM 97.0 °F 95.7 °F 57.0 °F 26% 29.75 in 10.0 mi North 3.5 mph - N/A   Scattered Clouds
3:51 PM 96.1 °F 94.8 °F 57.0 °F 27% 29.73 in 10.0 mi Variable 4.6 mph - N/A   Mostly Cloudy
4:51 PM 96.1 °F 94.8 °F 57.0 °F 27% 29.71 in 10.0 mi West 4.6 mph - N/A   Mostly Cloudy
5:51 PM 96.1 °F 94.8 °F 57.0 °F 27% 29.74 in 10.0 mi West 9.2 mph - N/A   Mostly Cloudy
6:51 PM 95.0 °F 94.8 °F 60.1 °F 31% 29.75 in 10.0 mi West 12.7 mph - N/A   Overcast
7:51 PM 93.0 °F 92.7 °F 60.1 °F 33% 29.79 in 10.0 mi West 12.7 mph - N/A   Overcast
8:51 PM 90.0 °F 90.6 °F 63.0 °F 40% 29.81 in 10.0 mi West 11.5 mph - 0.00 in   Overcast
9:51 PM 88.0 °F 89.3 °F 64.0 °F 45% 29.83 in 10.0 mi WNW 15.0 mph - N/A   Overcast
10:51 PM 87.1 °F 88.3 °F 64.0 °F 46% 29.82 in 10.0 mi WNW 6.9 mph - N/A   Overcast
11:51 PM 86.0 °F 87.6 °F 64.9 °F 49% 29.82 in 10.0 mi North 9.2 mph - N/A   Overcast